Overview Statistics Trail Chart Weather Telemetry Raw packets
 

This is the latest recevied weather packets stored in our database for station/object NT9G. If no packets are shown the sender has not sent any weather packets the latest 10 day(s).

<< 93 94 95 96 97 98 99 >>
Time Temp. Humidity Pressure Rain* Wind** Luminosity Snow
1777099837 11.11° C 66% 1011.3 hPa 0 mm - - -
1777099537 11.11° C 65% 1011.3 hPa 0 mm - - -
1777099277 11.11° C 64% 1011.3 hPa 0 mm - - -
1777099237 11.11° C 64% 1011.3 hPa 0 mm - - -
1777098936 11.67° C 65% 1011.3 hPa 0 mm - - -
1777098636 11.67° C 65% 1011.3 hPa 0 mm - - -
1777098336 11.67° C 66% 1011.3 hPa 0 mm - - -
1777098036 12.22° C 66% 1011.4 hPa 0 mm - - -
1777097735 12.22° C 67% 1011.4 hPa 0 mm - - -
1777097435 12.22° C 66% 1011.3 hPa 0 mm - - -
1777097135 12.22° C 65% 1011.3 hPa 0 mm - - -
1777096834 12.78° C 65% 1011.2 hPa 0 mm - - -
1777096534 12.78° C 66% 1011.2 hPa 0 mm - - -
1777096234 12.78° C 66% 1011.1 hPa 0 mm - - -
1777095934 12.78° C 66% 1011.1 hPa 0 mm - - -
1777095633 12.22° C 65% 1011 hPa 0 mm - - -
1777095333 12.22° C 63% 1011 hPa 0 mm - - -
1777095033 12.78° C 63% 1011.1 hPa 0 mm - - -
1777094732 12.78° C 62% 1011.1 hPa 0.51 mm - - -
1777094432 12.78° C 62% 1011 hPa 0.51 mm - - -
1777094229 13.33° C 64% 1010.9 hPa 0.51 mm - - -
1777094132 13.33° C 64% 1010.9 hPa 0.51 mm - - -
1777093231 12.78° C 62% 1011 hPa 0.51 mm - - -
1777092931 12.78° C 59% 1011.1 hPa 0.51 mm - - -
1777092630 12.78° C 59% 1011 hPa 0.51 mm - - -

* Rain since midnight (hover to see other rain measurements)
** Current wind speed in m/s (hover to see current wind gust speed)